Location: Bambrugge
(50.9212°N, 3.9299°E)
Time: 02:18:42
(UTC+00:00)

Cosmos 1763 Rocket - Pass Details

Date: 23 May 2024
Orbit: 730 x 778 km, 74.0° (Epoch: 16 June)

Event Time Altitude Azimuth Distance (km) Brightness Sun altitude
Rises 00:48:39 0° 331° (NNW) 3,272 7.5 -16.9°
Reaches altitude 10° 00:51:09 10° 324° (NW) 2,340 6.5 -16.8°
Maximum altitude 00:56:07 42° 256° (WSW) 1,108 4.1 -16.6°
Enters shadow 00:58:22 27° 206° (SSW) 1,444 4.3 -16.4°
